Location: Chmeln�
(49.6483°N, 14.9871°E)
Time: 02:41:34
(UTC+00:00)

Cosmos 1943 - Pass Details

Date: 18 September 2020
Orbit: 833 x 850 km, 71.0° (Epoch: 24 October)

Event Time Altitude Azimuth Distance (km) Brightness Sun altitude
Rises 18:01:37 0° 329° (NNW) 3,401 7.1 -9.7°
Reaches altitude 10° 18:04:04 10° 326° (NW) 2,465 6.4 -10.1°
Maximum altitude 18:09:39 63° 247° (WSW) 937 3.7 -11.0°
Drops below altitude 10° 18:15:13 10° 167° (SSE) 2,460 5.3 -11.8°
Sets 18:17:40 0° 164° (SSE) 3,393 6.0 -12.2°
